UR5RFF-13 Weather Reports


Display with metric or nautical units.
time (UTC)temp
F
wind
direction
speed
MPH
gust
MPH
rain 1hr
in
rain 24hr
in
rain mn
in
humidity
%
barometer
mb
20260906101114 55 286 4.0 6.0 0.00 0.12 0.01 85 1014.6
20260906100053 55 273 6.0 13.0 0.00 0.12 0.01 86 1014.6
20260906095038 54 252 7.0 11.0 0.00 0.12 0.01 89 1014.6
20260906094120 54 288 8.0 11.0 0.00 0.12 0.01 91 1014.5
20260906093059 55 258 5.0 8.0 0.00 0.12 0.01 88 1014.3
20260906092044 55 260 4.0 11.0 0.00 0.12 0.01 89 1014.4
20260906091026 55 251 4.0 8.0 0.00 0.12 0.01 90 1014.3
20260906090104 54 256 5.0 10.0 0.00 0.12 0.01 93 1014.2
20260906085049 54 243 5.0 11.0 0.00 0.12 0.01 93 1014.3
20260906084028 54 250 4.0 6.0 0.01 0.12 0.01 93 1014.2
20260906083107 54 274 7.0 12.0 0.01 0.12 0.01 92 1014.2
20260906082052 54 261 5.0 8.0 0.01 0.12 0.01 91 1014.1
20260906081034 54 225 8.0 13.0 0.01 0.12 0.01 91 1014.0
20260906080113 54 244 6.0 11.0 0.01 0.12 0.01 88 1014.0
20260906075058 54 245 7.0 10.0 0.01 0.12 0.01 89 1013.9
20260906074041 54 249 6.0 8.0 0.00 0.11 0.00 85 1014.0
20260906073120 55 266 3.0 7.0 0.00 0.11 0.00 80 1014.0
20260906072105 55 257 4.0 8.0 0.00 0.11 0.00 78 1013.9
20260906071050 56 265 8.0 12.0 0.00 0.11 0.00 74 1013.8
20260906070028 56 266 7.0 11.0 0.00 0.11 0.00 73 1013.7
20260906065114 56 270 6.0 11.0 0.00 0.11 0.00 73 1013.7
20260906064056 56 270 8.0 15.0 0.00 0.11 0.00 72 1013.6
20260906063034 56 298 11.0 15.0 0.00 0.11 0.00 72 1013.6
20260906062119 56 270 8.0 14.0 0.00 0.11 0.00 72 1013.5
20260906061104 57 260 4.0 8.0 0.00 0.11 0.00 72 1013.3
20260906060043 56 270 8.0 14.0 0.00 0.11 0.00 73 1013.3
20260906055028 56 270 8.0 11.0 0.00 0.11 0.00 72 1013.2
20260906054110 56 270 6.0 9.0 0.00 0.11 0.00 71 1013.3
20260906053049 57 244 5.0 9.0 0.00 0.11 0.00 73 1013.1
20260906052033 55 257 5.0 8.0 0.00 0.11 0.00 73 1013.1
20260906051118 54 270 7.0 10.0 0.00 0.11 0.00 77 1013.1
20260906050057 54 240 7.0 11.0 0.00 0.11 0.00 78 1013.1
20260906045042 54 230 8.0 11.0 0.00 0.11 0.00 78 1013.1
20260906044024 54 259 5.0 10.0 0.00 0.11 0.00 78 1013.2
20260906043102 53 236 4.0 8.0 0.00 0.11 0.00 80 1013.2
20260906042047 53 239 4.0 6.0 0.00 0.11 0.00 80 1013.3
20260906041029 53 225 3.0 5.0 0.00 0.11 0.00 82 1013.1
20260906040109 52 235 3.0 4.0 0.00 0.11 0.00 84 1013.3
20260906035054 51 242 3.0 6.0 0.00 0.11 0.00 87 1013.3
20260906034035 50 229 3.0 4.0 0.00 0.11 0.00 87 1013.2
20260906033114 50 229 2.0 4.0 0.00 0.11 0.00 87 1013.2
20260906032059 50 225 4.0 7.0 0.00 0.11 0.00 87 1013.2
20260906031045 50 241 3.0 4.0 0.00 0.11 0.00 88 1013.0
20260906030024 50 225 4.0 6.0 0.00 0.11 0.00 87 1013.2
20260906025107 50 225 3.0 4.0 0.00 0.11 0.00 87 1013.0
20260906024047 51 257 2.0 6.0 0.00 0.11 0.00 86 1013.1
20260906023023 51 225 2.0 4.0 0.00 0.11 0.00 85 1012.9
20260906022105 51 244 3.0 4.0 0.00 0.11 0.00 84 1012.8
20260906021048 52 237 3.0 4.0 0.00 0.11 0.00 84 1012.9
20260906020026 52 241 4.0 5.0 0.00 0.11 0.00 84 1012.9
20260906015111 52 225 3.0 5.0 0.00 0.11 0.00 84 1012.8
20260906014051 52 225 2.0 4.0 0.00 0.11 0.00 83 1012.8
20260906013029 52 225 3.0 5.0 0.00 0.11 0.00 83 1013.0
20260906012113 52 228 3.0 5.0 0.00 0.11 0.00 83 1013.1
20260906011056 52 233 2.0 5.0 0.00 0.11 0.00 83 1013.0
20260906010035 52 231 4.0 5.0 0.00 0.11 0.00 82 1013.2
20260906005020 52 264 2.0 6.0 0.00 0.11 0.00 82 1013.2
20260906004103 53 248 3.0 5.0 0.00 0.11 0.00 82 1013.2
20260906003042 53 238 3.0 5.0 0.00 0.11 0.00 82 1013.3
20260906002026 53 228 2.0 3.0 0.00 0.11 0.00 81 1013.2
20260906001111 53 234 2.0 4.0 0.00 0.11 0.00 81 1013.3
20260906000050 53 225 2.0 4.0 0.00 0.11 0.00 81 1013.3
20260905235035 53 228 3.0 4.0 0.00 0.11 0.00 81 1013.4
20260905234113 53 225 2.0 4.0 0.00 0.11 0.00 80 1013.3
20260905233051 53 237 3.0 5.0 0.00 0.11 0.00 80 1013.3
20260905232036 54 233 3.0 5.0 0.00 0.11 0.00 80 1013.2
20260905231121 54 228 3.0 5.0 0.00 0.11 0.00 79 1013.3
20260905230100 54 240 2.0 4.0 0.00 0.11 0.00 79 1013.1
20260905225045 54 225 2.0 4.0 0.00 0.11 0.00 78 1013.1
20260905224027 54 225 2.0 4.0 0.00 0.11 0.00 77 1013.0
20260905223106 55 249 2.0 4.0 0.00 0.11 0.00 74 1012.9
20260905222050 55 231 3.0 4.0 0.00 0.11 0.00 74 1012.8
20260905221032 55 242 3.0 6.0 0.00 0.11 0.00 73 1012.7
20260905220111 55 244 2.0 5.0 0.00 0.11 0.00 73 1012.8
20260905215057 55 225 3.0 4.0 0.00 0.11 0.00 73 1012.9
20260905214039 55 233 3.0 4.0 0.00 0.11 0.00 72 1013.0
20260905213118 55 225 2.0 5.0 0.00 0.11 0.00 72 1012.7
20260905212102 55 225 2.0 4.0 0.00 0.11 0.00 72 1012.8
20260905211048 56 225 1.0 2.0 0.00 0.11 0.00 71 1012.8
20260905210027 56 225 2.0 3.0 0.00 0.11 0.00 70 1012.7
20260905205112 56 225 2.0 2.0 0.00 0.11 0.11 70 1012.8
20260905204054 57 225 3.0 5.0 0.00 0.11 0.11 70 1012.7
20260905203032 57 225 2.0 4.0 0.00 0.11 0.11 70 1012.6
20260905202117 57 229 1.0 4.0 0.00 0.11 0.11 70 1012.5
20260905201102 57 225 3.0 4.0 0.00 0.11 0.11 69 1012.5
20260905200040 58 225 2.0 4.0 0.00 0.11 0.11 68 1012.4
20260905195025 58 227 3.0 5.0 0.00 0.11 0.11 67 1012.4
20260905194107 58 261 3.0 5.0 0.00 0.11 0.11 66 1012.2
20260905193046 59 225 4.0 6.0 0.00 0.11 0.11 65 1012.4
20260905192031 59 255 3.0 4.0 0.00 0.11 0.11 63 1012.5
20260905191117 60 235 5.0 7.0 0.00 0.11 0.11 63 1012.7
20260905190055 59 256 5.0 8.0 0.00 0.11 0.11 64 1012.6
20260905185040 59 257 5.0 9.0 0.00 0.11 0.11 66 1012.5
20260905184122 59 270 2.0 4.0 0.00 0.11 0.11 65 1012.5
20260905183101 59 270 1.0 2.0 0.00 0.11 0.11 64 1012.4
20260905182045 60 270 2.0 3.0 0.00 0.11 0.11 63 1012.6
20260905181026 61 270 2.0 3.0 0.00 0.11 0.11 61 1012.5
20260905180105 61 270 1.0 2.0 0.00 0.11 0.11 60 1012.4
20260905175050 62 270 2.0 4.0 0.00 0.11 0.11 58 1012.3
20260905174032 63 270 3.0 5.0 0.00 0.11 0.11 56 1012.3
20260905173111 63 270 2.0 4.0 0.00 0.11 0.11 55 1012.4
20260905172055 63 270 2.0 4.0 0.00 0.11 0.11 53 1012.2
20260905171037 64 270 4.0 6.0 0.00 0.11 0.11 50 1012.1
20260905170116 64 270 5.0 9.0 0.00 0.11 0.11 50 1011.9
20260905165101 65 270 4.0 8.0 0.00 0.11 0.11 49 1011.8
20260905164044 65 287 5.0 8.0 0.00 0.11 0.11 49 1011.8
20260905163022 66 270 6.0 8.0 0.00 0.11 0.11 49 1011.7
20260905162108 67 255 9.0 13.0 0.00 0.11 0.11 47 1011.7
20260905161052 67 274 7.0 11.0 0.00 0.11 0.11 46 1011.4
20260905160030 68 284 7.0 15.0 0.00 0.11 0.11 45 1011.4
20260905155116 68 304 9.0 15.0 0.00 0.11 0.11 45 1011.2
20260905154057 69 260 9.0 13.0 0.00 0.11 0.11 46 1011.2
20260905153035 69 291 13.0 19.0 0.00 0.11 0.11 46 1011.1
20260905152020 69 291 10.0 20.0 0.00 0.11 0.11 51 1010.9
20260905151105 69 265 7.0 15.0 0.00 0.11 0.11 64 1010.9
20260905150044 69 234 10.0 14.0 0.00 0.11 0.11 63 1010.6
20260905145030 68 251 10.0 15.0 0.00 0.11 0.11 66 1010.6
20260905144112 67 251 6.0 10.0 0.00 0.11 0.11 71 1010.6
20260905143051 67 253 9.0 15.0 0.00 0.11 0.11 70 1010.6
20260905142035 67 232 9.0 16.0 0.00 0.11 0.11 71 1010.5
20260905141119 67 225 9.0 14.0 0.00 0.11 0.11 71 1010.4
20260905140057 67 242 11.0 16.0 0.04 0.11 0.11 71 1010.3
20260905135042 66 248 10.0 16.0 0.05 0.11 0.11 71 1010.3
20260905134122 66 239 9.0 16.0 0.05 0.11 0.11 73 1010.3
20260905133101 66 242 5.0 9.0 0.05 0.11 0.11 78 1010.1
20260905132046 64 225 8.0 11.0 0.05 0.11 0.11 82 1010.4
20260905131028 63 235 9.0 14.0 0.05 0.11 0.11 84 1010.3
20260905130108 65 225 6.0 9.0 0.01 0.07 0.07 77 1010.2
20260905125053 65 263 4.0 7.0 0.00 0.06 0.06 74 1009.9
20260905124035 65 259 4.0 7.0 0.00 0.06 0.06 74 1009.9
20260905123114 65 234 6.0 8.0 0.01 0.06 0.06 73 1009.8
20260905122059 64 259 5.0 7.0 0.02 0.06 0.06 73 1010.1
20260905121040 62 270 4.0 6.0 0.06 0.06 0.06 79 1010.1
20260905120119 61 266 4.0 7.0 0.06 0.06 0.06 80 1010.0
20260905115104 61 228 2.0 4.0 0.06 0.06 0.06 80 1010.2
20260905114046 62 270 5.0 9.0 0.06 0.06 0.06 80 1010.1
20260905113025 62 270 5.0 9.0 0.05 0.05 0.05 80 1010.1
20260905112111 67 303 20.0 28.0 0.04 0.04 0.04 69 1010.2
20260905111055 72 245 13.0 21.0 0.00 0.00 0.00 55 1009.0
20260905110033 72 241 12.0 17.0 0.00 0.00 0.00 54 1008.7
20260905105118 72 239 12.0 21.0 0.00 0.00 0.00 55 1008.8
20260905104100 72 232 14.0 22.0 0.00 0.00 0.00 55 1008.9
20260905103039 73 260 11.0 21.0 0.00 0.00 0.00 52 1009.0
20260905102024 73 238 12.0 17.0 0.00 0.00 0.00 53 1008.9